Вернуться в каталог

STARLINK-4632

АктивенСвязьSSO
NORAD 53679·PAYLOAD·🇺🇸 United States

Запущен Aug 31, 2022 с Vandenberg Space Force Base

Loading…

Ближайшие Пролёты (ближайшие 24 часа)

TLE

СвежийSource: CelesTrak SupGP

Эпоха: Sep 15, 2026, 02:41 UTC

1 53679C 22105AH  26258.11229167  .00023826  00000+0  73952-3 0  2589
2 53679  97.2842 134.8643 0001753  96.0857 181.4520 15.33429913    16

Отслеживайте STARLINK-4632 в реальном времени с AllMySat

Download on the App Store